Temp
71 70 70 69 70 69 69 69 65 62 63 65 66 68 67 69 71 68 67 72 72 72 71 71 71 72 72 72 72 71 71 71 71 71 70 71 72 75
72 70 68 69 68 67 67 70 68 65 64 66 65 65 66 69 71 70 68 72 72 71 71 70 71 71 71 71 71 70 70 70 70 70 69 69 71 73
72 72 71 70 67 67 66 67 68 68 66 64 64 64 64 66 69 66 68 66 65 71 71 70 70 70 71 70 70 69 69 69 69 69 69 68 68 70
70 71 71 73 67 66 66 67 68 67 64 61 61 62 63 64 64 64 69 73 65 70 70 69 68 68 69 68 68 67 67 67 67 67 67 67 67 67
71 70 69 69 69 66 65 66 63 65 62 61 60 61 62 63 62 64 64 62 66 71 69 68 68 67 67 67 67 65 64 64 64 64 65 66 67 67
72 70 70 68 69 67 66 65 62 61 62 61 60 61 61 62 62 61 60 59 61 71 71 69 68 68 68 66 66 66 63 62 61 61 62 63 64 65
71 71 70 70 72 70 67 64 61 59 59 60 59 59 59 60 60 59 59 57 58 60 60 61 61 60 61 67 67 68 64 63 62 61 60 60 61 62
70 71 70 70 70 70 70 69 66 61 59 59 58 59 59 59 59 58 57 56 57 60 60 61 60 61 60 59 66 66 64 63 63 62 62 61 61 61
69 69 68 71 68 68 68 68 68 68 67 62 60 59 59 61 60 57 56 56 56 59 60 58 59 60 59 62 64 64 64 63 62 62 61 61 61 60
70 69 67 66 66 66 64 63 63 63 63 66 62 62 62 61 62 62 59 58 58 59 59 58 57 59 62 62 65 64 63 62 62 61 60 59 58 57
69 69 68 67 66 65 63 62 60 60 64 64 65 65 65 65 64 60 57 57 55 57 58 57 58 61 60 62 59 64 62 61 59 59 59 58 56 55
67 68 67 67 63 63 63 61 59 59 61 61 61 62 62 62 66 61 58 56 54 55 59 59 56 57 57 57 56 57 56 58 57 57 57 57 55 57
67 67 67 63 60 60 62 62 65 64 64 64 62 58 58 59 60 58 59 59 56 55 60 60 56 54 53 53 55 56 55 56 56 56 55 54 54 54
67 67 67 61 58 59 62 63 62 65 66 63 62 57 57 58 60 59 59 58 60 62 61 60 57 55 52 51 53 55 55 56 55 55 56 58 57 57
67 65 62 58 57 60 62 63 63 67 63 60 62 58 59 62 61 60 60 61 62 60 63 60 58 56 54 52 52 55 58 55 54 54 55 55 55 54
63 63 62 62 61 63 62 63 65 64 67 65 61 60 60 60 59 59 62 63 61 60 60 61 59 58 57 53 54 57 53 52 54 55 56 54 54 55
61 61 60 60 60 60 61 61 61 62 62 61 64 63 62 63 64 64 63 60 59 56 56 57 58 59 58 58 54 52 51 51 52 52 52 51 53 53
62 61 60 60 60 60 60 60 61 62 61 62 63 64 64 64 63 63 63 60 57 56 56 55 57 54 53 55 60 53 51 51 52 52 55 50 49 53
62 62 61 60 60 60 60 60 60 61 62 63 64 63 61 62 62 62 60 60 57 53 54 55 52 51 48 47 52 57 54 51 55 51 50 49 49 52
63 62 61 61 61 60 61 61 61 60 59 59 60 62 62 63 62 61 59 57 54 53 52 51 51 51 50 50 51 53 55 53 50 49 49 49 51 57
62 62 62 61 61 62 62 62 61 60 58 57 61 62 62 62 61 59 56 55 54 52 51 51 53 58 53 52 50 50 52 54 53 50 50 51 52 53
62 60 61 61 60 60 61 60 58 58 58 61 61 62 63 61 59 59 57 55 53 53 53 51 51 52 50 49 48 48 49 52 55 56 55 55 49 46
62 62 61 61 60 60 59 58 60 59 59 59 60 60 60 58 57 56 56 55 53 51 50 49 49 49 49 49 49 47 49 51 50 49 50 55 56 55
MSLP
1018.92 1019.00 1019.08 1019.15 1018.98 1018.81 1018.75 1019.19 1019.91 1020.86 1020.93 1020.74 1020.66 1020.42 1021.21 1021.14 1021.39 1021.44 1021.71 1021.89 1022.07 1022.38 1022.54 1022.66 1022.79 1022.93 1022.97 1022.90 1022.75 1022.69 1022.47 1022.17 1021.98 1021.82 1021.68 1021.35 1021.09 1020.98
1018.62 1018.79 1018.99 1019.07 1019.13 1019.13 1019.24 1019.20 1019.30 1019.83 1020.47 1020.45 1020.45 1020.52 1020.89 1021.21 1021.42 1021.59 1021.76 1021.93 1022.03 1022.25 1022.43 1022.57 1022.76 1022.84 1022.97 1022.96 1022.83 1022.70 1022.67 1022.44 1022.11 1021.88 1021.71 1021.36 1020.72 1020.24
1018.26 1018.41 1018.67 1018.82 1019.13 1019.26 1019.30 1019.39 1019.57 1019.61 1020.08 1020.57 1020.53 1020.46 1020.95 1021.22 1021.23 1021.65 1021.86 1021.93 1021.95 1021.97 1022.11 1022.29 1022.46 1022.58 1022.79 1022.86 1022.86 1022.76 1022.68 1022.63 1022.39 1022.09 1021.83 1021.47 1021.04 1020.23
1018.24 1018.31 1018.39 1018.57 1018.92 1019.02 1019.22 1019.55 1019.50 1019.37 1019.68 1020.35 1020.70 1020.82 1020.99 1021.25 1021.36 1021.50 1021.62 1021.53 1021.79 1021.79 1021.94 1022.13 1022.32 1022.45 1022.63 1022.73 1022.75 1022.73 1022.78 1022.77 1022.62 1022.36 1022.09 1021.71 1021.25 1020.84
1018.14 1018.23 1018.33 1018.54 1018.97 1019.12 1019.22 1019.38 1019.54 1019.56 1019.58 1019.75 1020.51 1020.66 1020.81 1021.19 1021.59 1021.59 1021.55 1021.66 1021.65 1021.61 1021.92 1021.98 1022.06 1022.33 1022.51 1022.57 1022.65 1022.76 1022.78 1022.74 1022.68 1022.44 1022.31 1022.07 1021.71 1021.39
1018.09 1018.52 1018.53 1018.38 1018.49 1018.95 1019.12 1019.43 1019.63 1019.74 1019.93 1020.25 1020.51 1020.87 1021.12 1021.17 1021.18 1021.70 1022.13 1022.00 1021.84 1021.44 1021.40 1021.64 1021.87 1021.92 1022.18 1022.46 1022.47 1022.47 1022.49 1022.65 1022.82 1022.69 1022.41 1022.37 1022.18 1021.84
1017.11 1017.81 1017.81 1017.97 1017.96 1018.39 1018.95 1019.42 1019.85 1020.05 1020.13 1020.32 1020.65 1020.90 1021.09 1021.22 1021.38 1021.53 1021.80 1021.88 1021.85 1021.83 1021.76 1021.55 1021.87 1021.97 1021.69 1021.91 1022.06 1022.17 1022.36 1022.54 1022.59 1022.78 1022.67 1022.52 1022.39 1022.20
1016.57 1016.69 1017.12 1017.34 1017.84 1018.00 1018.61 1018.84 1019.16 1019.69 1020.06 1020.49 1020.61 1021.00 1021.00 1021.08 1021.33 1021.59 1021.79 1022.05 1021.99 1021.46 1021.71 1021.69 1021.63 1021.65 1021.55 1021.47 1021.55 1021.75 1022.03 1022.16 1022.34 1022.40 1022.62 1022.41 1022.38 1022.26
1017.44 1016.90 1017.03 1017.17 1017.62 1017.81 1018.46 1018.77 1019.02 1019.52 1019.56 1019.92 1020.24 1020.36 1020.53 1020.49 1020.85 1021.55 1021.66 1021.81 1021.69 1021.33 1021.44 1021.83 1021.61 1021.60 1021.33 1021.33 1021.26 1021.49 1021.71 1021.98 1022.20 1022.29 1022.46 1022.28 1022.19 1022.15
1017.54 1017.16 1017.29 1017.05 1017.44 1017.70 1018.40 1018.91 1019.09 1019.32 1019.49 1019.65 1019.74 1019.67 1019.57 1019.78 1020.10 1020.70 1021.21 1021.52 1021.52 1021.45 1021.31 1021.76 1021.52 1021.56 1021.24 1021.10 1021.10 1021.26 1021.43 1021.79 1021.90 1021.94 1022.18 1022.12 1022.05 1022.02
1016.38 1017.01 1016.87 1017.12 1017.28 1017.85 1018.36 1019.09 1019.46 1019.71 1019.60 1019.49 1019.52 1019.36 1019.45 1019.50 1019.78 1020.44 1021.39 1021.79 1021.92 1021.73 1021.49 1021.81 1021.67 1021.66 1021.43 1021.26 1021.23 1021.05 1021.30 1021.45 1021.68 1021.85 1022.00 1022.00 1021.96 1021.85
1015.35 1016.29 1016.51 1016.74 1016.76 1017.55 1018.06 1018.70 1019.04 1019.37 1019.23 1019.46 1019.91 1020.08 1020.23 1020.11 1019.68 1020.05 1020.83 1021.32 1021.70 1021.90 1021.27 1021.49 1021.73 1021.71 1021.94 1021.68 1021.36 1021.11 1021.38 1021.49 1021.66 1021.73 1021.80 1021.69 1021.52 1021.75
1014.98 1015.79 1016.56 1016.49 1016.65 1017.13 1017.53 1018.21 1018.40 1018.81 1019.25 1019.41 1019.60 1020.08 1020.35 1020.25 1020.39 1020.14 1020.26 1020.55 1021.02 1021.34 1020.94 1021.02 1021.70 1021.99 1022.05 1022.11 1021.77 1021.38 1021.43 1021.35 1021.52 1021.49 1021.32 1021.14 1021.11 1021.44
1014.96 1015.67 1015.99 1015.96 1016.09 1016.62 1017.16 1017.50 1018.01 1018.30 1019.03 1019.55 1019.76 1020.15 1020.43 1020.48 1020.26 1020.20 1020.14 1020.44 1020.41 1020.42 1020.56 1020.81 1021.45 1021.80 1022.19 1022.46 1022.27 1021.67 1021.37 1021.19 1021.40 1021.32 1021.09 1020.83 1020.74 1020.67
1014.77 1015.32 1015.54 1015.52 1016.03 1016.57 1017.09 1017.26 1017.71 1018.29 1018.94 1019.55 1019.51 1019.63 1019.73 1019.64 1019.73 1019.86 1019.87 1020.22 1020.36 1020.44 1020.60 1020.79 1021.07 1021.54 1021.76 1022.02 1022.21 1022.00 1021.70 1021.24 1021.16 1021.20 1021.06 1021.01 1020.90 1020.74
1014.85 1015.29 1015.40 1015.71 1016.10 1016.22 1016.83 1017.10 1017.32 1017.87 1018.34 1018.79 1019.32 1019.23 1018.93 1019.31 1019.58 1019.65 1019.90 1020.03 1020.56 1020.68 1020.43 1020.57 1020.65 1020.96 1021.52 1021.77 1021.87 1021.74 1021.74 1021.85 1021.14 1020.91 1020.85 1020.85 1020.62 1020.45
1014.84 1015.33 1015.72 1015.89 1016.03 1016.20 1016.73 1017.17 1017.48 1018.15 1018.39 1018.90 1018.84 1019.02 1019.17 1018.96 1019.13 1019.25 1019.66 1020.16 1020.59 1020.80 1020.92 1020.80 1020.82 1020.95 1021.09 1021.34 1021.52 1021.47 1021.60 1021.47 1021.06 1021.02 1021.03 1021.00 1020.52 1020.20
1014.71 1015.03 1015.32 1015.53 1015.79 1016.07 1016.37 1017.10 1017.75 1018.21 1018.36 1018.49 1018.87 1018.67 1018.96 1019.11 1019.55 1019.36 1019.46 1020.00 1020.38 1020.79 1020.93 1020.99 1021.08 1021.40 1021.51 1021.05 1020.78 1021.22 1021.40 1021.34 1020.99 1020.84 1020.89 1021.12 1020.77 1019.76
1014.13 1014.43 1014.68 1015.16 1015.62 1015.89 1016.27 1016.90 1017.42 1017.78 1018.20 1018.38 1018.39 1018.51 1018.72 1018.85 1019.34 1019.28 1019.49 1019.91 1020.45 1020.99 1021.11 1020.97 1021.35 1021.60 1021.99 1022.03 1021.20 1020.76 1021.09 1021.02 1020.86 1020.85 1020.71 1020.82 1020.70 1019.83
1013.96 1014.22 1014.45 1014.97 1015.31 1015.61 1016.16 1016.72 1017.21 1017.74 1018.19 1018.56 1018.83 1018.86 1018.49 1018.79 1019.01 1019.24 1019.63 1020.08 1020.62 1020.97 1021.17 1021.30 1021.31 1021.31 1021.59 1021.54 1021.33 1020.79 1020.48 1020.63 1020.78 1020.85 1020.69 1020.35 1019.94 1019.34
1013.97 1014.15 1014.43 1014.73 1015.07 1015.61 1016.00 1016.44 1016.90 1017.55 1018.22 1018.73 1018.67 1018.58 1018.26 1018.63 1018.97 1019.25 1019.63 1020.36 1020.73 1020.83 1021.24 1021.12 1020.66 1020.36 1020.83 1021.08 1021.32 1021.15 1020.52 1020.52 1020.37 1020.50 1020.51 1020.43 1019.99 1019.59
1013.83 1014.12 1014.16 1014.53 1014.79 1015.08 1015.80 1016.29 1016.99 1017.62 1018.13 1018.20 1018.32 1018.18 1018.27 1018.62 1018.91 1019.24 1019.75 1020.33 1020.44 1020.48 1020.69 1020.69 1020.73 1020.76 1021.08 1021.35 1021.65 1021.51 1021.22 1020.90 1020.61 1020.46 1020.40 1020.36 1020.34 1020.25
1013.84 1013.77 1014.09 1014.39 1014.65 1014.92 1015.46 1015.92 1016.84 1017.20 1017.65 1017.79 1017.68 1018.04 1018.74 1019.10 1018.86 1019.11 1019.60 1019.92 1020.23 1020.53 1020.72 1021.00 1021.04 1021.04 1021.43 1021.52 1021.59 1021.57 1021.38 1021.17 1021.03 1020.96 1020.87 1020.53 1020.35 1020.17
Wind_Speed
4 2 0 2 2 2 2 4 5 4 5 4 3 4 2 4 5 5 5 8 8 7 6 4 3 2 1 1 0 2 4 5 7 8 10 13 13 19
3 3 1 2 2 1 2 1 2 4 3 3 3 3 5 3 6 5 5 6 6 6 7 5 5 5 4 2 0 1 3 5 6 8 9 14 13 15
4 5 5 4 2 3 2 1 1 2 3 1 1 2 3 5 4 3 3 4 4 9 8 8 8 7 5 2 0 1 2 3 5 7 10 10 16 20
5 6 6 3 4 3 3 3 2 2 4 4 1 2 3 4 4 4 3 4 4 8 9 9 6 6 6 4 3 2 2 3 4 5 7 10 12 13
6 4 5 5 3 2 3 3 2 0 1 4 3 1 2 2 2 1 1 1 3 6 9 9 8 7 6 6 3 3 3 3 2 4 5 6 7 10
5 9 6 7 7 6 4 4 3 3 3 3 3 2 1 0 3 3 1 2 3 2 6 8 6 7 8 7 5 6 6 5 3 2 3 4 5 6
8 9 6 7 9 8 5 5 4 2 2 2 2 2 2 2 4 2 3 0 2 3 2 3 2 3 4 8 7 9 8 5 3 2 1 1 1 2
6 7 6 8 9 10 9 10 8 6 4 3 2 3 3 3 3 3 3 2 1 1 3 2 1 2 3 3 9 10 8 7 6 5 5 4 4 4
3 3 4 4 6 6 7 8 7 6 6 6 5 6 5 7 6 3 2 2 3 2 3 2 0 2 2 3 8 6 7 7 6 7 8 7 6 5
12 7 7 6 5 8 7 6 5 4 3 3 4 5 4 7 6 5 5 3 2 3 1 2 1 2 1 2 2 8 8 7 8 7 7 7 7 8
11 7 5 6 8 10 7 7 5 1 2 4 5 6 7 9 8 5 2 3 1 2 1 2 1 1 1 1 1 2 5 6 6 6 8 7 8 9
5 5 10 8 13 14 8 8 7 5 5 4 2 2 2 2 8 4 5 3 2 2 2 3 0 1 3 2 2 1 1 3 7 10 10 10 11 4
6 6 6 11 14 14 11 7 8 7 7 5 4 2 1 2 3 3 5 4 4 2 4 3 1 1 2 3 3 1 2 3 2 4 8 10 9 7
6 6 7 14 15 15 10 11 11 10 4 3 3 2 2 3 5 5 5 5 3 3 3 3 3 3 3 0 2 3 1 3 2 3 3 4 7 5
5 6 9 12 13 11 10 12 10 5 5 4 4 3 4 5 2 2 2 3 3 1 2 2 3 3 3 3 2 2 2 2 2 2 2 2 2 2
6 3 4 6 6 5 5 5 4 4 6 5 3 3 3 2 4 3 3 2 2 1 3 5 6 5 3 2 4 2 2 2 2 2 1 3 3 4
7 3 2 2 4 4 4 4 4 1 4 3 3 1 1 2 2 3 2 2 3 3 1 1 2 1 1 3 2 2 2 2 3 2 1 3 4 4
3 3 3 4 5 6 7 6 4 5 3 3 1 3 3 3 2 1 2 3 3 3 2 1 2 3 4 4 7 3 1 2 2 3 1 1 4 5
3 4 4 5 4 5 5 4 6 4 3 3 3 4 4 4 2 2 3 2 2 2 2 3 2 3 1 2 4 5 3 2 2 3 1 3 3 5
2 4 4 5 4 5 6 5 3 4 3 2 3 4 4 4 2 3 3 3 3 2 1 1 2 4 5 5 3 3 7 2 1 2 3 2 5 8
3 3 3 4 5 6 5 5 5 4 5 4 4 3 4 3 2 2 4 4 4 3 3 2 3 4 3 2 3 4 4 1 4 2 2 2 3 3
3 3 4 5 5 5 5 4 5 4 4 4 4 2 4 1 3 3 4 4 4 4 3 0 2 2 3 2 1 2 3 3 5 8 5 1 1 3
4 3 3 3 3 4 5 5 5 5 5 5 4 5 2 3 3 4 4 3 4 3 2 1 1 3 1 1 1 2 2 2 2 3 3 7 3 1
Wind_Direction
225 223 109 34 33 31 119 151 155 189 230 212 182 161 139 158 189 165 175 196 175 192 209 219 241 264 310 19 52 17 13 11 7 1 352 332 294 264
219 169 144 136 64 96 87 75 124 148 194 196 228 150 158 142 203 188 191 200 195 216 226 224 249 256 273 343 338 46 19 16 17 11 5 354 326 272
239 195 175 158 120 101 113 105 55 150 149 340 43 143 120 165 176 200 194 205 217 229 239 237 234 243 251 293 27 110 69 38 31 28 28 20 26 28
217 191 193 165 149 156 151 153 187 189 150 156 115 105 128 190 186 195 206 204 206 238 243 254 248 245 252 242 202 166 114 76 46 32 37 41 45 43
218 221 207 183 169 166 165 155 168 266 145 138 137 145 107 146 157 136 206 252 231 235 247 258 254 254 244 247 217 190 165 151 118 66 45 39 50 57
80 281 231 202 175 181 166 173 176 133 122 98 75 101 105 168 101 147 256 267 255 245 228 237 241 249 245 238 219 212 205 201 173 117 71 49 42 47
166 225 223 217 192 176 160 180 162 134 123 143 130 140 169 146 187 186 191 130 295 233 237 259 284 273 246 232 221 212 217 205 223 246 223 282 345 5
174 201 209 190 199 173 182 168 167 156 162 157 159 189 206 182 146 173 156 131 204 231 173 312 160 280 288 223 212 207 192 203 213 234 256 252 256 269
234 179 203 180 171 160 162 156 167 181 169 165 174 199 174 184 148 169 172 147 204 225 122 254 183 265 260 244 216 199 190 211 216 236 250 257 264 279
262 222 218 173 193 156 146 146 144 134 145 179 188 185 181 155 153 163 160 135 322 312 149 207 227 248 301 239 297 192 191 214 225 236 250 256 266 279
229 213 213 206 195 159 147 153 131 0 349 246 189 174 155 146 141 106 96 93 4 279 314 138 260 228 313 291 269 182 211 234 257 269 270 273 282 287
131 220 243 206 172 170 158 160 155 190 154 117 84 48 70 139 143 139 158 132 144 345 253 127 17 76 336 288 304 261 338 287 260 260 264 262 258 264
173 204 223 191 174 171 157 167 178 156 186 172 172 161 252 234 244 188 178 147 149 215 248 115 145 22 70 308 315 333 189 259 251 281 259 258 264 205
188 215 208 184 170 170 165 173 157 155 165 181 187 208 207 233 235 221 200 218 221 172 211 142 167 153 155 296 277 331 289 258 225 264 284 279 275 266
167 194 176 173 171 171 175 175 154 164 166 174 205 208 205 230 221 232 238 222 244 295 242 204 144 154 151 175 213 253 327 300 222 248 303 269 266 289
137 101 109 152 153 159 158 160 139 163 180 181 200 241 276 178 222 174 206 162 102 329 345 207 172 157 164 202 189 237 200 274 308 295 257 287 281 255
123 125 125 111 149 138 157 149 123 204 169 182 194 197 188 146 207 173 125 124 184 183 207 249 154 143 140 168 257 220 265 268 244 261 8 308 292 288
137 167 175 165 176 172 172 162 178 190 206 207 184 145 179 129 174 151 134 161 150 189 192 193 90 25 351 303 205 255 274 259 272 265 230 216 292 300
162 178 174 171 169 159 150 171 178 174 145 180 186 182 161 127 165 155 129 125 107 114 209 161 147 137 113 288 290 222 196 237 277 311 234 207 243 287
150 171 167 164 164 163 167 168 154 128 90 243 207 182 158 154 114 136 148 143 142 147 183 253 209 191 176 210 212 273 200 245 191 265 292 278 250 262
164 156 145 153 164 171 162 143 132 157 184 178 188 175 111 126 149 170 159 155 167 141 179 223 234 218 155 77 16 324 312 35 259 198 296 291 303 330
173 168 162 165 170 160 153 137 125 140 157 161 148 127 49 146 164 182 160 168 202 164 173 187 8 53 68 107 228 287 311 345 45 66 50 225 162 329
186 176 165 166 150 143 135 131 140 139 160 164 113 88 344 230 161 141 171 170 134 116 124 121 23 48 57 114 108 294 304 338 5 4 354 4 107 330